7 * 24
多渠道服务支持
STARLINK-37647(NORAD编号69207)是SpaceX星链星座的一颗低轨互联网通信卫星,隶属于SpaceX大规模卫星互联网组网计划,核心为全球提供高速宽带互联网接入服务。 该卫星运行于近地轨道,采用星链标准卫星平台设计,配备相控阵天线等通信载荷,支持低延迟数据传输。目前公开的卫星参数库已收录其轨道TLE数据,可供航天仿真与轨道跟踪研究使用,作为星链组网的组成部分,支撑全球卫星互联网服务覆盖。
美国
(US)
| 数据来源 | 国际轨道数据 |
| 星历时间: | 2026-07-27T19:47:17+0800 12小时前 查看轨道信息 |
| 半长轴: | 6840.816km |
| 偏心率: | 0.0001119 |
| 轨道倾角: | 53.158° |
| 近地点辐角 | 94.304° |
| 升交点赤经 | 10.676° |
| 平近点角 | 265.809° |
| 近地点: | 461.913km |
| 远地点: | 463.445km |
| 周期: | 93.847分钟 |
| 每日圈数: | 15.344083 |